Weather History for Galveston, TX

Change the Weather History Date:

Saturday, January 12, 2013

  Actual Average Record
Temperature  
Mean Temperature 70 °F 55 °F  
Max Temperature 73 °F 62 °F 75 °F (1880)
Min Temperature 66 °F 48 °F 17 °F (1918)
Degree Days  
Heating Degree Days 0 10  
Month to date heating degree days 129 120  
Since 1 July heating degree days 386 480  
Cooling Degree Days 5 0  
Month to date cooling degree days 5 0  
Year to date cooling degree days 5 0  
Growing Degree Days 18 (Base 50)    
Moisture  
Dew Point 67 °F    
Average Humidity 97    
Maximum Humidity 100    
Minimum Humidity 93    
Precipitation  
Precipitation 0.00 in 0.13 in 2.20 in (1944)
Month to date precipitation 6.80 1.59  
Year to date precipitation 6.80 1.59  
Snow  
Snow 0.00 in - 0.60 in (1886)
Month to date snowfall 0.0  
Since 1 July snowfall 0.0  
Snow Depth 0.00 in    
Sea Level Pressure  
Sea Level Pressure 29.82 in    
Wind  
Wind Speed 13 mph (SE)    
Max Wind Speed 23 mph    
Max Gust Speed 29 mph    
Visibility 1 miles    
Events Fog    
T = Trace of Precipitation, MM = Missing Value Source: NWS Daily Summary

Daily Weather History Graph

Daily Weather History Graph

Search for Another Location

Airport:

Trip Planner

Search our weather history database for the weather conditions in past years. The results will help you decide how hot, cold, wet, or windy it might be!

Date:

Astronomy

Jan. 12, 2013 Rise Set
Actual Time 7:14 AM CST 5:41 PM CST
Civil Twilight 6:49 AM CST 6:06 PM CST
Nautical Twilight 6:19 AM CST 6:36 PM CST
Astronomical Twilight 5:51 AM CST 7:04 PM CST
Moon 7:41 AM CST (1/12) 7:01 PM CST (1/12)
Length of Visible Light 11h 17m
Length of Day
10h 26m
New Moon, 1% of the Moon is Illuminated
Jan 12
New Moon
Jan 18
First Quarter
Jan 26
Full
Feb 3
Last Quarter
Feb 10
New

Hourly Weather History & Observations

Time (CST) Temp. Dew Point Humidity Pressure Visibility Wind Dir Wind Speed Gust Speed Precip Events Conditions
12:48 AM 68.0 °F 68.0 °F 100% 29.91 in 1.0 mi SSE 12.7 mph - N/A   Mist
12:52 AM 68.0 °F 68.0 °F 100% 29.91 in 1.0 mi SSE 12.7 mph - N/A   Mist
1:38 AM 66.2 °F 66.2 °F 100% 29.91 in 0.8 mi SSE 9.2 mph - N/A   Mist
1:52 AM 66.9 °F 66.9 °F 100% 29.91 in 0.8 mi SSE 11.5 mph - N/A   Mist
2:52 AM 68.0 °F 68.0 °F 100% 29.90 in 0.8 mi SSE 11.5 mph - N/A   Mist
3:52 AM 66.9 °F 66.9 °F 100% 29.90 in 0.8 mi SSE 8.1 mph - N/A   Mist
4:52 AM 66.0 °F 66.0 °F 100% 29.90 in 0.8 mi SSE 9.2 mph - N/A   Mist
5:52 AM 66.9 °F 66.9 °F 100% 29.88 in 0.1 mi SSE 12.7 mph - N/A Fog Fog
6:52 AM 66.9 °F 66.9 °F 100% 29.88 in 0.2 mi SE 15.0 mph - N/A Fog Fog
7:52 AM 68.0 °F 66.9 °F 96% 29.89 in 0.2 mi SE 17.3 mph - N/A Fog Fog
8:52 AM 68.0 °F 68.0 °F 100% 29.90 in 0.2 mi SE 13.8 mph - N/A Fog Fog
9:52 AM 66.9 °F 66.9 °F 100% 29.92 in 0.2 mi SE 13.8 mph - N/A Fog Fog
10:47 AM 68.0 °F 68.0 °F 100% 29.90 in 0.5 mi SE 12.7 mph - N/A Fog Fog
10:52 AM 68.0 °F 68.0 °F 100% 29.90 in 0.5 mi SE 11.5 mph - N/A Fog Fog
11:52 AM 69.1 °F 68.0 °F 96% 29.85 in 0.5 mi SE 17.3 mph - N/A Fog Fog
12:38 PM 68.0 °F 66.2 °F 94% 29.83 in 0.5 mi SE 13.8 mph - N/A Fog Fog
12:44 PM 68.0 °F 66.2 °F 94% 29.82 in 1.0 mi SE 12.7 mph - N/A   Overcast
12:52 PM 68.0 °F 66.9 °F 96% 29.83 in 1.0 mi SE 12.7 mph - N/A   Overcast
1:52 PM 68.0 °F 66.9 °F 96% 29.80 in 1.0 mi SE 11.5 mph - N/A   Overcast
2:52 PM 68.0 °F 66.0 °F 93% 29.80 in 1.0 mi SE 8.1 mph - N/A   Overcast
3:12 PM 68.0 °F 66.2 °F 94% 29.79 in 1.0 mi SE 9.2 mph - N/A   Overcast
3:22 PM 68.0 °F 66.2 °F 94% 29.79 in 1.0 mi SE 9.2 mph - N/A   Overcast
3:30 PM 69.8 °F 66.2 °F 88% 29.79 in 1.0 mi SE 10.4 mph - N/A   Overcast
3:37 PM 68.0 °F 66.2 °F 94% 29.79 in 1.0 mi SE 9.2 mph - N/A   Overcast
3:52 PM 68.0 °F 66.9 °F 96% 29.79 in 1.0 mi SE 9.2 mph - N/A   Overcast
4:43 PM 68.0 °F 66.2 °F 94% 29.78 in 1.0 mi SE 10.4 mph - N/A   Overcast
4:52 PM 66.9 °F 66.0 °F 97% 29.78 in 1.0 mi SE 9.2 mph - N/A   Overcast
5:14 PM 66.2 °F 66.2 °F 100% 29.78 in 0.5 mi SE 8.1 mph - N/A Fog Fog
5:34 PM 66.2 °F 66.2 °F 100% 29.77 in 0.2 mi SE 11.5 mph - N/A Fog Fog
5:52 PM 66.9 °F 66.0 °F 97% 29.77 in 0.2 mi SE 13.8 mph - N/A Fog Fog
5:59 PM 66.2 °F 66.2 °F 100% 29.76 in 1.8 mi SE 13.8 mph - N/A   Overcast
6:14 PM 66.2 °F 66.2 °F 100% 29.76 in 2.0 mi SE 17.3 mph - N/A   Overcast
6:32 PM 66.2 °F 66.2 °F 100% 29.77 in 3.0 mi SSE 12.7 mph - N/A   Overcast
6:52 PM 66.9 °F 66.0 °F 97% 29.78 in 3.0 mi SSE 11.5 mph - N/A   Overcast
7:24 PM 68.0 °F 66.2 °F 94% 29.78 in 1.8 mi SE 10.4 mph - N/A   Overcast
7:37 PM 66.2 °F 66.2 °F 100% 29.77 in 0.8 mi SE 11.5 mph - N/A   Overcast
7:49 PM 66.2 °F 66.2 °F 100% 29.78 in 1.0 mi SE 12.7 mph - N/A   Mist
7:52 PM 66.9 °F 66.0 °F 97% 29.78 in 1.0 mi SE 13.8 mph - N/A   Mist
8:52 PM 66.9 °F 66.9 °F 100% 29.76 in 1.0 mi SE 17.3 mph - N/A   Mist
9:52 PM 66.9 °F 66.9 °F 100% 29.73 in 1.5 mi SE 23.0 mph 27.6 mph N/A   Overcast
10:00 PM 66.2 °F 66.2 °F 100% 29.75 in 3.0 mi South 15.0 mph 28.8 mph N/A   Overcast
10:24 PM 66.2 °F 66.2 °F 100% 29.76 in 4.0 mi SSE 16.1 mph - N/A   Overcast
10:52 PM 69.1 °F 69.1 °F 100% 29.79 in 5.0 mi SSW 10.4 mph 19.6 mph N/A   Overcast
11:52 PM 71.1 °F 69.1 °F 93% 29.78 in 7.0 mi SW 11.5 mph 18.4 mph N/A   Overcast